Year,Month,Day,Hour,Minute,Value (Times are PST for temperature in C)
2011,08,23,08,15,16.90
2011,08,23,08,16,16.90
2011,08,23,08,17,17.00
2011,08,23,08,18,17.10
2011,08,23,08,19,17.10
2011,08,23,08,20,17.10
2011,08,23,08,21,17.20
2011,08,23,08,22,17.20
2011,08,23,08,23,17.20
2011,08,23,08,24,17.20
2011,08,23,08,25,17.20
2011,08,23,08,26,17.30
2011,08,23,08,27,17.30
2011,08,23,08,28,17.30
2011,08,23,08,29,17.30
2011,08,23,08,30,17.30
2011,08,23,08,31,17.30
2011,08,23,08,32,17.30
2011,08,23,08,33,17.30
2011,08,23,08,34,17.40
2011,08,23,08,35,17.40
2011,08,23,08,36,17.40
2011,08,23,08,37,17.40
2011,08,23,08,38,17.50
2011,08,23,08,39,17.50
2011,08,23,08,40,17.60
2011,08,23,08,41,17.60
2011,08,23,08,42,17.60
2011,08,23,08,43,17.70
2011,08,23,08,44,17.70
2011,08,23,08,45,17.80
2011,08,23,08,46,17.80
2011,08,23,08,47,17.90
2011,08,23,08,48,18.00
2011,08,23,08,49,18.10
2011,08,23,08,50,18.10
2011,08,23,08,51,18.10
2011,08,23,08,52,18.10
2011,08,23,08,53,18.10
2011,08,23,08,54,18.00
2011,08,23,08,55,17.90
2011,08,23,08,56,17.90
2011,08,23,08,57,17.80
2011,08,23,08,58,17.80
2011,08,23,08,59,17.80
2011,08,23,09,00,17.80
2011,08,23,09,01,17.80
2011,08,23,09,02,17.90
2011,08,23,09,03,17.90
2011,08,23,09,04,18.00
2011,08,23,09,05,18.00
2011,08,23,09,06,18.00
2011,08,23,09,07,18.10
2011,08,23,09,08,18.20
2011,08,23,09,09,18.20
2011,08,23,09,10,18.30
2011,08,23,09,11,18.30
2011,08,23,09,12,18.40
2011,08,23,09,13,18.40
2011,08,23,09,14,18.50
2011,08,23,09,15,18.50
2011,08,23,09,16,18.60
2011,08,23,09,17,18.60
2011,08,23,09,18,18.60
2011,08,23,09,19,18.70
2011,08,23,09,20,18.70
2011,08,23,09,21,18.70
2011,08,23,09,22,18.70
2011,08,23,09,23,18.70
2011,08,23,09,24,18.70
2011,08,23,09,25,18.80
2011,08,23,09,26,18.80
2011,08,23,09,27,18.80
2011,08,23,09,28,18.80
2011,08,23,09,29,18.80
2011,08,23,09,30,18.80
2011,08,23,09,31,18.80
2011,08,23,09,32,18.80
2011,08,23,09,33,18.80
2011,08,23,09,34,18.80
2011,08,23,09,35,18.80
2011,08,23,09,36,18.70
2011,08,23,09,37,18.60
2011,08,23,09,38,18.40
2011,08,23,09,39,18.30
2011,08,23,09,40,18.20
2011,08,23,09,41,18.10
2011,08,23,09,42,18.00
2011,08,23,09,43,17.90
2011,08,23,09,44,17.80
2011,08,23,09,45,17.70
2011,08,23,09,46,17.60
2011,08,23,09,47,17.50
2011,08,23,09,48,17.50
2011,08,23,09,49,17.40
2011,08,23,09,50,17.40
2011,08,23,09,51,17.50
2011,08,23,09,52,17.50
2011,08,23,09,53,17.60
2011,08,23,09,54,17.60
2011,08,23,09,55,17.70
2011,08,23,09,56,17.80
2011,08,23,09,57,18.00
2011,08,23,09,58,18.10
2011,08,23,09,59,18.20
2011,08,23,10,00,18.30
2011,08,23,10,01,18.40
2011,08,23,10,02,18.40
2011,08,23,10,03,18.50
2011,08,23,10,04,18.50
2011,08,23,10,05,18.60
2011,08,23,10,06,18.70
2011,08,23,10,07,18.80
2011,08,23,10,08,18.80
2011,08,23,10,09,18.90
2011,08,23,10,10,19.00
2011,08,23,10,11,19.10
2011,08,23,10,12,19.20
2011,08,23,10,13,19.30
2011,08,23,10,14,19.40
2011,08,23,10,15,19.50
2011,08,23,10,16,19.60
2011,08,23,10,17,19.70
2011,08,23,10,18,19.80
2011,08,23,10,19,19.80
2011,08,23,10,20,19.90
2011,08,23,10,21,20.00
2011,08,23,10,22,20.00
2011,08,23,10,23,20.10
2011,08,23,10,24,20.10
2011,08,23,10,25,20.20
2011,08,23,10,26,20.30
2011,08,23,10,27,20.30
2011,08,23,10,28,20.30
2011,08,23,10,29,20.30
2011,08,23,10,30,20.30
2011,08,23,10,31,20.30
2011,08,23,10,32,20.30
2011,08,23,10,33,20.30
2011,08,23,10,34,20.20
2011,08,23,10,35,20.10
2011,08,23,10,36,20.10
2011,08,23,10,37,20.10
2011,08,23,10,38,20.10
2011,08,23,10,39,20.10
2011,08,23,10,40,20.10
2011,08,23,10,41,20.10
2011,08,23,10,42,20.00
2011,08,23,10,43,19.90
2011,08,23,10,44,19.90
2011,08,23,10,45,19.90
2011,08,23,10,46,19.90
2011,08,23,10,47,20.00
2011,08,23,10,48,20.00
2011,08,23,10,49,20.10
2011,08,23,10,50,20.10
2011,08,23,10,51,20.00
2011,08,23,10,52,20.00
2011,08,23,10,53,19.90
2011,08,23,10,54,19.80
2011,08,23,10,55,19.70
2011,08,23,10,56,19.60
2011,08,23,10,57,19.60
2011,08,23,10,58,19.60
2011,08,23,10,59,19.60
2011,08,23,11,00,19.60
2011,08,23,11,01,19.50
2011,08,23,11,02,19.50
2011,08,23,11,03,19.50
2011,08,23,11,04,19.50
2011,08,23,11,05,19.60
2011,08,23,11,06,19.60
2011,08,23,11,07,19.60
2011,08,23,11,08,19.60
2011,08,23,11,09,19.60
2011,08,23,11,10,19.50
2011,08,23,11,11,19.50
2011,08,23,11,12,19.40
2011,08,23,11,13,19.40
2011,08,23,11,14,19.30
2011,08,23,11,15,19.30
2011,08,23,11,16,19.40
2011,08,23,11,17,19.40
2011,08,23,11,18,19.40
2011,08,23,11,19,19.50
2011,08,23,11,20,19.50
2011,08,23,11,21,19.50
2011,08,23,11,22,19.40
2011,08,23,11,23,19.40
2011,08,23,11,24,19.40
2011,08,23,11,25,19.40
2011,08,23,11,26,19.40
2011,08,23,11,27,19.40
2011,08,23,11,28,19.50
2011,08,23,11,29,19.60
2011,08,23,11,30,19.60
2011,08,23,11,31,19.70
2011,08,23,11,32,19.70
2011,08,23,11,33,19.70
2011,08,23,11,34,19.80
2011,08,23,11,35,19.80
2011,08,23,11,36,19.80
2011,08,23,11,37,19.80
2011,08,23,11,38,19.80
2011,08,23,11,39,19.80
2011,08,23,11,40,19.80
2011,08,23,11,41,19.80
2011,08,23,11,42,19.80
2011,08,23,11,43,19.80
2011,08,23,11,44,19.80
2011,08,23,11,45,19.90
2011,08,23,11,46,20.00
2011,08,23,11,47,20.10
2011,08,23,11,48,20.20
2011,08,23,11,49,20.30
2011,08,23,11,50,20.40
2011,08,23,11,51,20.50
2011,08,23,11,52,20.60
2011,08,23,11,53,20.70
2011,08,23,11,54,20.80
2011,08,23,11,55,20.90
2011,08,23,11,56,21.00
2011,08,23,11,57,21.10
2011,08,23,11,58,21.20
2011,08,23,11,59,21.20
2011,08,23,12,00,21.20
2011,08,23,12,01,21.20
2011,08,23,12,02,21.10
2011,08,23,12,03,21.10
2011,08,23,12,04,21.00
2011,08,23,12,05,20.90
2011,08,23,12,06,20.80
2011,08,23,12,07,20.70
2011,08,23,12,08,20.50
2011,08,23,12,09,20.40
2011,08,23,12,10,20.40
2011,08,23,12,11,20.40
2011,08,23,12,12,20.30
2011,08,23,12,13,20.30
2011,08,23,12,14,20.40
2011,08,23,12,15,20.40
2011,08,23,12,16,20.50
2011,08,23,12,17,20.50
2011,08,23,12,18,20.50
2011,08,23,12,19,20.50
2011,08,23,12,20,20.50
2011,08,23,12,21,20.50
2011,08,23,12,22,20.40
2011,08,23,12,23,20.40
2011,08,23,12,24,20.30
2011,08,23,12,25,20.30
2011,08,23,12,26,20.20
2011,08,23,12,27,20.10
2011,08,23,12,28,20.00
2011,08,23,12,29,19.90
2011,08,23,12,30,19.90
2011,08,23,12,31,19.80
2011,08,23,12,32,19.80
2011,08,23,12,33,19.70
2011,08,23,12,34,19.70
2011,08,23,12,35,19.60
2011,08,23,12,36,19.60
2011,08,23,12,37,19.50
2011,08,23,12,38,19.40
2011,08,23,12,39,19.40
2011,08,23,12,40,19.40
2011,08,23,12,41,19.30
2011,08,23,12,42,19.30
2011,08,23,12,43,19.30
2011,08,23,12,44,19.30
2011,08,23,12,45,19.20
2011,08,23,12,46,19.20
2011,08,23,12,47,19.20
2011,08,23,12,48,19.20
2011,08,23,12,49,19.20
2011,08,23,12,50,19.20
2011,08,23,12,51,19.20
2011,08,23,12,52,19.30
2011,08,23,12,53,19.30
2011,08,23,12,54,19.30
2011,08,23,12,55,19.40
2011,08,23,12,56,19.40
2011,08,23,12,57,19.40
2011,08,23,12,58,19.40
2011,08,23,12,59,19.50
2011,08,23,13,00,19.50
2011,08,23,13,01,19.60
2011,08,23,13,02,19.60
2011,08,23,13,03,19.70
2011,08,23,13,04,19.80
2011,08,23,13,05,19.90
2011,08,23,13,06,20.00
2011,08,23,13,07,20.10
2011,08,23,13,08,20.20
2011,08,23,13,09,20.20
2011,08,23,13,10,20.20
2011,08,23,13,11,20.30
2011,08,23,13,12,20.30
2011,08,23,13,13,20.40
2011,08,23,13,14,20.50
2011,08,23,13,15,20.50
2011,08,23,13,16,20.60
2011,08,23,13,17,20.60
2011,08,23,13,18,20.70
2011,08,23,13,19,20.70
2011,08,23,13,20,20.80
2011,08,23,13,21,21.00
2011,08,23,13,22,21.10
2011,08,23,13,23,21.20
2011,08,23,13,24,21.20
2011,08,23,13,25,21.30
2011,08,23,13,26,21.30
2011,08,23,13,27,21.30
2011,08,23,13,28,21.40
2011,08,23,13,29,21.40
2011,08,23,13,30,21.40
2011,08,23,13,31,21.40
2011,08,23,13,32,21.40
2011,08,23,13,33,21.50
2011,08,23,13,34,21.60
2011,08,23,13,35,21.60
2011,08,23,13,36,21.60
2011,08,23,13,37,21.70
2011,08,23,13,38,21.80
2011,08,23,13,39,21.80
2011,08,23,13,40,21.80
2011,08,23,13,41,21.90
2011,08,23,13,42,22.00
2011,08,23,13,43,22.10
2011,08,23,13,44,22.10
2011,08,23,13,45,22.10
2011,08,23,13,46,22.10
2011,08,23,13,47,22.20
2011,08,23,13,48,22.20
2011,08,23,13,49,22.20
2011,08,23,13,50,22.10
2011,08,23,13,51,22.10
2011,08,23,13,52,22.00
2011,08,23,13,53,22.00
2011,08,23,13,54,21.90
2011,08,23,13,55,21.80
2011,08,23,13,56,21.80
2011,08,23,13,57,21.70
2011,08,23,13,58,21.50
2011,08,23,13,59,21.40
2011,08,23,14,00,21.30
2011,08,23,14,01,21.30
2011,08,23,14,02,21.30
2011,08,23,14,03,21.30
2011,08,23,14,04,21.40
2011,08,23,14,05,21.40
2011,08,23,14,06,21.40
2011,08,23,14,07,21.40
2011,08,23,14,08,21.40
2011,08,23,14,09,21.40
2011,08,23,14,10,21.40
2011,08,23,14,11,21.40
2011,08,23,14,12,21.40
2011,08,23,14,13,21.40
2011,08,23,14,14,21.50
2011,08,23,14,15,21.60
2011,08,23,14,16,21.60
2011,08,23,14,17,21.70
2011,08,23,14,18,21.80
2011,08,23,14,19,21.90
2011,08,23,14,20,21.90
2011,08,23,14,21,22.00
2011,08,23,14,22,22.10
2011,08,23,14,23,22.20
2011,08,23,14,24,22.20
2011,08,23,14,25,22.30
2011,08,23,14,26,22.40
2011,08,23,14,27,22.60
2011,08,23,14,28,22.70
2011,08,23,14,29,22.80
2011,08,23,14,30,22.80
2011,08,23,14,31,22.80
2011,08,23,14,32,22.80
2011,08,23,14,33,22.80
2011,08,23,14,34,22.80
2011,08,23,14,35,22.70
2011,08,23,14,36,22.70
2011,08,23,14,37,22.70
2011,08,23,14,38,22.60
2011,08,23,14,39,22.60
2011,08,23,14,40,22.60
2011,08,23,14,41,22.60
2011,08,23,14,42,22.50
2011,08,23,14,43,22.50
2011,08,23,14,44,22.40
2011,08,23,14,45,22.40
2011,08,23,14,46,22.40
2011,08,23,14,47,22.40
2011,08,23,14,48,22.40
2011,08,23,14,49,22.30
2011,08,23,14,50,22.30
2011,08,23,14,51,22.40
2011,08,23,14,52,22.50
2011,08,23,14,53,22.50
2011,08,23,14,54,22.50
2011,08,23,14,55,22.40
2011,08,23,14,56,22.40
2011,08,23,14,57,22.40
2011,08,23,14,58,22.30
2011,08,23,14,59,22.20
2011,08,23,15,00,22.10
2011,08,23,15,01,22.10
2011,08,23,15,02,22.00
2011,08,23,15,03,22.10
2011,08,23,15,04,22.10
2011,08,23,15,05,22.10
2011,08,23,15,06,22.20
2011,08,23,15,07,22.20
2011,08,23,15,08,22.20
2011,08,23,15,09,22.20
2011,08,23,15,10,22.10
2011,08,23,15,11,22.10
2011,08,23,15,12,22.10
2011,08,23,15,13,22.10
2011,08,23,15,14,22.10
2011,08,23,15,15,22.10
2011,08,23,15,16,22.00
2011,08,23,15,17,22.00
2011,08,23,15,18,22.10
2011,08,23,15,19,22.20
2011,08,23,15,20,22.30
2011,08,23,15,21,22.30
2011,08,23,15,22,22.40
2011,08,23,15,23,22.50
2011,08,23,15,24,22.50
2011,08,23,15,25,22.50
2011,08,23,15,26,22.40
2011,08,23,15,27,22.30
2011,08,23,15,28,22.30
2011,08,23,15,29,22.30
2011,08,23,15,30,22.30
2011,08,23,15,31,22.30
2011,08,23,15,32,22.20
2011,08,23,15,33,22.20
2011,08,23,15,34,22.20
2011,08,23,15,35,22.30
2011,08,23,15,36,22.30
2011,08,23,15,37,22.20
2011,08,23,15,38,22.20
2011,08,23,15,39,22.10
2011,08,23,15,40,22.10
2011,08,23,15,41,22.10
2011,08,23,15,42,22.00
2011,08,23,15,43,22.00
2011,08,23,15,44,22.00
2011,08,23,15,45,22.10
2011,08,23,15,46,22.10
2011,08,23,15,47,22.10
2011,08,23,15,48,22.20
2011,08,23,15,49,22.20
2011,08,23,15,50,22.20
2011,08,23,15,51,22.30
2011,08,23,15,52,22.40
2011,08,23,15,53,22.50
2011,08,23,15,54,22.50
2011,08,23,15,55,22.60
2011,08,23,15,56,22.60
2011,08,23,15,57,22.50
2011,08,23,15,58,22.50
2011,08,23,15,59,22.50
2011,08,23,16,00,22.60
2011,08,23,16,01,22.60
2011,08,23,16,02,22.50
2011,08,23,16,03,22.60
2011,08,23,16,04,22.60
2011,08,23,16,05,22.50
2011,08,23,16,06,22.60
2011,08,23,16,07,22.60
2011,08,23,16,08,22.60
2011,08,23,16,09,22.70
2011,08,23,16,10,22.60
2011,08,23,16,11,22.60
2011,08,23,16,12,22.50
2011,08,23,16,13,22.40
2011,08,23,16,14,22.40
2011,08,23,16,15,22.40
2011,08,23,16,16,22.30
2011,08,23,16,17,22.30
2011,08,23,16,18,22.40
2011,08,23,16,19,22.40
2011,08,23,16,20,22.40
2011,08,23,16,21,22.50
2011,08,23,16,22,22.50
2011,08,23,16,23,22.40
2011,08,23,16,24,22.30
2011,08,23,16,25,22.30
2011,08,23,16,26,22.30
2011,08,23,16,27,22.30
2011,08,23,16,28,22.30
2011,08,23,16,29,22.30
2011,08,23,16,30,22.30
2011,08,23,16,31,22.20
2011,08,23,16,32,22.20
2011,08,23,16,33,22.20
2011,08,23,16,34,22.10
2011,08,23,16,35,22.00
2011,08,23,16,36,22.00
2011,08,23,16,37,21.90
2011,08,23,16,38,21.90
2011,08,23,16,39,21.90
2011,08,23,16,40,22.00
2011,08,23,16,41,22.10
2011,08,23,16,42,22.10
2011,08,23,16,43,22.10
2011,08,23,16,44,22.10
2011,08,23,16,45,22.00
2011,08,23,16,46,22.00
2011,08,23,16,47,22.00
2011,08,23,16,48,21.90
2011,08,23,16,49,21.90
2011,08,23,16,50,21.80
2011,08,23,16,51,21.80
2011,08,23,16,52,21.80
2011,08,23,16,53,21.90
2011,08,23,16,54,21.90
2011,08,23,16,55,21.90
2011,08,23,16,56,21.90
2011,08,23,16,57,21.80
2011,08,23,16,58,21.80
2011,08,23,16,59,21.70
2011,08,23,17,00,21.60
2011,08,23,17,01,21.60
2011,08,23,17,02,21.60
2011,08,23,17,03,21.60
2011,08,23,17,04,21.60
2011,08,23,17,05,21.60
2011,08,23,17,06,21.60
2011,08,23,17,07,21.60
2011,08,23,17,08,21.60
2011,08,23,17,09,21.70
2011,08,23,17,10,21.60
2011,08,23,17,11,21.60
2011,08,23,17,12,21.60
2011,08,23,17,13,21.60
2011,08,23,17,14,21.50
2011,08,23,17,15,21.50
2011,08,23,17,16,21.40
2011,08,23,17,17,21.40
2011,08,23,17,18,21.40
2011,08,23,17,19,21.40
2011,08,23,17,20,21.40
2011,08,23,17,21,21.40
2011,08,23,17,22,21.40
2011,08,23,17,23,21.40
2011,08,23,17,24,21.40
2011,08,23,17,25,21.40
2011,08,23,17,26,21.40
2011,08,23,17,27,21.40
2011,08,23,17,28,21.50
2011,08,23,17,29,21.50
2011,08,23,17,30,21.50
2011,08,23,17,31,21.40
2011,08,23,17,32,21.40
2011,08,23,17,33,21.40
2011,08,23,17,34,21.40
2011,08,23,17,35,21.30
2011,08,23,17,36,21.20
2011,08,23,17,37,21.10
2011,08,23,17,38,21.00
2011,08,23,17,39,20.90
2011,08,23,17,40,20.90
2011,08,23,17,41,20.90
2011,08,23,17,42,20.90
2011,08,23,17,43,20.80
2011,08,23,17,44,20.80
2011,08,23,17,45,20.80
2011,08,23,17,46,20.80
2011,08,23,17,47,20.80
2011,08,23,17,48,20.80
2011,08,23,17,49,20.70
2011,08,23,17,50,20.70
2011,08,23,17,51,20.70
2011,08,23,17,52,20.70
2011,08,23,17,53,20.80
2011,08,23,17,54,20.70
2011,08,23,17,55,20.70
2011,08,23,17,56,20.70
2011,08,23,17,57,20.70
2011,08,23,17,58,20.70
2011,08,23,17,59,20.70
2011,08,23,18,00,20.70
2011,08,23,18,01,20.80
2011,08,23,18,02,20.80
2011,08,23,18,03,20.80
2011,08,23,18,04,20.80
2011,08,23,18,05,20.80
2011,08,23,18,06,20.80
2011,08,23,18,07,20.80
2011,08,23,18,08,20.70
2011,08,23,18,09,20.70
2011,08,23,18,10,20.70
2011,08,23,18,11,20.70
2011,08,23,18,12,20.70
2011,08,23,18,13,20.60
2011,08,23,18,14,20.60
2011,08,23,18,15,20.60
2011,08,23,18,16,20.60
2011,08,23,18,17,20.60
2011,08,23,18,18,20.60
2011,08,23,18,19,20.60
2011,08,23,18,20,20.60
2011,08,23,18,21,20.60
2011,08,23,18,22,20.60
2011,08,23,18,23,20.60
2011,08,23,18,24,20.70
2011,08,23,18,25,20.70
2011,08,23,18,26,20.70
2011,08,23,18,27,20.80
2011,08,23,18,28,20.80
2011,08,23,18,29,20.80
2011,08,23,18,30,20.90
2011,08,23,18,31,20.90
2011,08,23,18,32,21.00
2011,08,23,18,33,21.00
2011,08,23,18,34,21.10
2011,08,23,18,35,21.10
2011,08,23,18,36,21.10
2011,08,23,18,37,21.00
2011,08,23,18,38,21.00
2011,08,23,18,39,21.00
2011,08,23,18,40,21.00
2011,08,23,18,41,21.00
2011,08,23,18,42,21.00
2011,08,23,18,43,21.10
2011,08,23,18,44,21.10
2011,08,23,18,45,21.10
2011,08,23,18,46,21.10
2011,08,23,18,47,21.10
2011,08,23,18,48,21.10
2011,08,23,18,49,21.10
2011,08,23,18,50,21.10
2011,08,23,18,51,21.00
2011,08,23,18,52,21.00
2011,08,23,18,53,20.90
2011,08,23,18,54,20.90
2011,08,23,18,55,20.90
2011,08,23,18,56,20.90
2011,08,23,18,57,20.90
2011,08,23,18,58,20.90
2011,08,23,18,59,21.00
2011,08,23,19,00,21.00
2011,08,23,19,01,21.00
2011,08,23,19,02,21.00
2011,08,23,19,03,21.00
2011,08,23,19,04,20.90
2011,08,23,19,05,20.90
2011,08,23,19,06,20.80
2011,08,23,19,07,20.80
2011,08,23,19,08,20.80
2011,08,23,19,09,20.70
2011,08,23,19,10,20.70
2011,08,23,19,11,20.60
2011,08,23,19,12,20.60
2011,08,23,19,13,20.60
2011,08,23,19,14,20.50
2011,08,23,19,15,20.50
2011,08,23,19,16,20.50
2011,08,23,19,17,20.50
2011,08,23,19,18,20.40
2011,08,23,19,19,20.40
2011,08,23,19,20,20.30
2011,08,23,19,21,20.30
2011,08,23,19,22,20.20
2011,08,23,19,23,20.20
2011,08,23,19,24,20.10
2011,08,23,19,25,20.10
2011,08,23,19,26,20.00
2011,08,23,19,27,19.90
2011,08,23,19,28,19.90
2011,08,23,19,29,19.90
2011,08,23,19,30,19.80
2011,08,23,19,31,19.80
2011,08,23,19,32,19.70
2011,08,23,19,33,19.70
2011,08,23,19,34,19.70
2011,08,23,19,35,19.60
2011,08,23,19,36,19.60
2011,08,23,19,37,19.60
2011,08,23,19,38,19.50
2011,08,23,19,39,19.50
2011,08,23,19,40,19.40
2011,08,23,19,41,19.40
2011,08,23,19,42,19.40
2011,08,23,19,43,19.40
2011,08,23,19,44,19.40
2011,08,23,19,45,19.30
2011,08,23,19,46,19.30
2011,08,23,19,47,19.30
2011,08,23,19,48,19.20
2011,08,23,19,49,19.20
2011,08,23,19,50,19.20
2011,08,23,19,51,19.10
2011,08,23,19,52,19.10
2011,08,23,19,53,19.10
2011,08,23,19,54,19.00
2011,08,23,19,55,19.00
2011,08,23,19,56,18.90
2011,08,23,19,57,18.90
2011,08,23,19,58,18.90
2011,08,23,19,59,18.80
2011,08,23,20,00,18.80
2011,08,23,20,01,18.80
2011,08,23,20,02,18.80
2011,08,23,20,03,18.80
2011,08,23,20,04,18.80
2011,08,23,20,05,18.80
2011,08,23,20,06,18.80
2011,08,23,20,07,18.80
2011,08,23,20,08,18.80
2011,08,23,20,09,18.80
